Time,TemperatureF,DewpointF,PressureIn,WindDirection,WindDirectionDegrees,WindSpeedMPH,WindSpeedGustMPH,Humidity,HourlyPrecipIn,Conditions,Clouds,dailyrainin,SoftwareType,DateUTC
2013-05-16 00:02:00,66.0,47.0,29.79,NW,318,0.0,0.0,51,0.00,,,0.00,,2013-05-16 05:02:00,
2013-05-16 00:12:00,66.0,47.0,29.79,NW,318,0.0,0.0,51,0.00,,,0.00,,2013-05-16 05:12:00,
2013-05-16 00:22:00,65.0,47.0,29.79,NW,318,0.0,1.0,52,0.00,,,0.00,,2013-05-16 05:22:00,
2013-05-16 00:32:00,65.0,45.0,29.79,South,186,0.0,3.0,49,0.00,,,0.00,,2013-05-16 05:32:00,
2013-05-16 00:42:00,65.0,45.0,29.79,South,186,0.0,3.0,49,0.00,,,0.00,,2013-05-16 05:42:00,
2013-05-16 00:52:00,66.0,45.0,29.79,South,186,0.0,2.0,47,0.00,,,0.00,,2013-05-16 05:52:00,
2013-05-16 01:01:00,66.0,45.0,29.80,NNW,342,0.0,2.0,47,0.00,,,0.00,,2013-05-16 06:01:00,
2013-05-16 01:12:00,66.0,45.0,29.80,NNW,342,0.0,2.0,47,0.00,,,0.00,,2013-05-16 06:12:00,
2013-05-16 01:22:00,66.0,46.0,29.80,NNW,342,0.0,1.0,48,0.00,,,0.00,,2013-05-16 06:22:00,
2013-05-16 01:33:00,65.0,45.0,29.80,NNW,342,0.0,1.0,49,0.00,,,0.00,,2013-05-16 06:33:00,
2013-05-16 01:43:00,65.0,45.0,29.80,NNW,342,0.0,1.0,49,0.00,,,0.00,,2013-05-16 06:43:00,
2013-05-16 01:52:00,64.0,45.0,29.80,NNW,342,0.0,1.0,51,0.00,,,0.00,,2013-05-16 06:52:00,
2013-05-16 02:02:00,64.0,45.0,29.80,NNW,342,0.0,2.0,50,0.00,,,0.00,,2013-05-16 07:02:00,
2013-05-16 02:12:00,64.0,45.0,29.80,NNW,342,0.0,2.0,50,0.00,,,0.00,,2013-05-16 07:12:00,
2013-05-16 02:24:00,64.0,45.0,29.80,NNW,342,0.0,1.0,51,0.00,,,0.00,,2013-05-16 07:24:00,
2013-05-16 02:34:00,64.0,45.0,29.80,NNW,342,0.0,2.0,50,0.00,,,0.00,,2013-05-16 07:34:00,
2013-05-16 02:44:00,64.0,45.0,29.80,NNW,342,0.0,2.0,50,0.00,,,0.00,,2013-05-16 07:44:00,
2013-05-16 02:54:00,64.0,45.0,29.81,ENE,65,0.0,2.0,50,0.00,,,0.00,,2013-05-16 07:54:00,
2013-05-16 03:03:00,64.0,45.0,29.81,SE,130,0.0,4.0,50,0.00,,,0.00,,2013-05-16 08:03:00,
2013-05-16 03:13:00,64.0,45.0,29.81,SE,130,0.0,4.0,50,0.00,,,0.00,,2013-05-16 08:13:00,
2013-05-16 03:24:00,64.0,45.0,29.80,North,5,0.0,4.0,51,0.00,,,0.00,,2013-05-16 08:24:00,
2013-05-16 03:34:00,63.0,46.0,29.81,SE,140,0.0,2.0,53,0.00,,,0.00,,2013-05-16 08:34:00,
2013-05-16 03:44:00,63.0,46.0,29.81,SE,140,0.0,2.0,53,0.00,,,0.00,,2013-05-16 08:44:00,
2013-05-16 03:54:00,63.0,45.0,29.81,SE,137,0.0,3.0,52,0.00,,,0.00,,2013-05-16 08:54:00,
2013-05-16 04:04:00,63.0,49.0,29.82,WSW,250,2.0,4.0,61,0.00,,,0.00,,2013-05-16 09:04:00,
2013-05-16 04:14:00,63.0,49.0,29.82,WSW,250,2.0,4.0,61,0.00,,,0.00,,2013-05-16 09:14:00,
2013-05-16 04:24:00,62.0,49.0,29.82,WSW,257,0.0,1.0,62,0.00,,,0.00,,2013-05-16 09:24:00,
2013-05-16 04:35:00,61.0,50.0,29.83,WSW,257,0.0,0.0,66,0.00,,,0.00,,2013-05-16 09:35:00,
2013-05-16 04:45:00,61.0,50.0,29.83,WSW,257,0.0,0.0,66,0.00,,,0.00,,2013-05-16 09:45:00,
2013-05-16 04:55:00,60.0,49.0,29.83,WSW,257,0.0,1.0,67,0.00,,,0.00,,2013-05-16 09:55:00,
2013-05-16 05:05:00,59.0,49.0,29.84,WSW,257,0.0,0.0,69,0.00,,,0.00,,2013-05-16 10:05:00,
2013-05-16 05:15:00,59.0,49.0,29.84,WSW,257,0.0,0.0,69,0.00,,,0.00,,2013-05-16 10:15:00,
2013-05-16 05:24:00,59.0,49.0,29.83,WSW,257,0.0,2.0,69,0.00,,,0.00,,2013-05-16 10:24:00,
2013-05-16 05:36:00,58.0,48.0,29.83,WSW,257,0.0,2.0,69,0.00,,,0.00,,2013-05-16 10:36:00,
2013-05-16 05:45:00,58.0,48.0,29.83,WSW,257,0.0,2.0,69,0.00,,,0.00,,2013-05-16 10:45:00,
2013-05-16 05:56:00,57.0,47.0,29.83,WSW,257,0.0,0.0,70,0.00,,,0.00,,2013-05-16 10:56:00,
2013-05-16 06:05:00,56.0,47.0,29.83,WSW,257,0.0,2.0,72,0.00,,,0.00,,2013-05-16 11:05:00,
2013-05-16 06:14:00,56.0,47.0,29.83,WSW,257,0.0,2.0,72,0.00,,,0.00,,2013-05-16 11:14:00,
2013-05-16 06:25:00,56.0,47.0,29.84,WSW,257,0.0,1.0,72,0.00,,,0.00,,2013-05-16 11:25:00,
2013-05-16 06:35:00,56.0,47.0,29.84,WSW,257,0.0,0.0,73,0.00,,,0.00,,2013-05-16 11:35:00,
2013-05-16 06:46:00,56.0,47.0,29.84,WSW,257,0.0,0.0,73,0.00,,,0.00,,2013-05-16 11:46:00,
2013-05-16 06:56:00,56.0,47.0,29.85,WSW,257,0.0,1.0,72,0.00,,,0.00,,2013-05-16 11:56:00,
2013-05-16 07:06:00,59.0,48.0,29.85,WSW,257,0.0,2.0,68,0.00,,,0.00,,2013-05-16 12:06:00,
2013-05-16 07:13:00,59.0,48.0,29.85,WSW,257,0.0,2.0,68,0.00,,,0.00,,2013-05-16 12:13:00,
2013-05-16 07:23:00,60.0,48.0,29.85,WSW,257,0.0,2.0,64,0.00,,,0.00,,2013-05-16 12:23:00,
2013-05-16 07:35:00,61.0,48.0,29.86,WSW,257,1.0,3.0,63,0.00,,,0.00,,2013-05-16 12:35:00,
2013-05-16 07:45:00,61.0,48.0,29.86,WSW,257,1.0,3.0,63,0.00,,,0.00,,2013-05-16 12:45:00,
2013-05-16 07:53:00,62.0,50.0,29.88,WSW,257,0.0,3.0,64,0.00,,,0.00,,2013-05-16 12:53:00,
2013-05-16 08:04:00,63.0,51.0,29.88,WSW,257,0.0,0.0,65,0.00,,,0.00,,2013-05-16 13:04:00,
2013-05-16 08:12:00,63.0,51.0,29.88,WSW,257,0.0,0.0,65,0.00,,,0.00,,2013-05-16 13:12:00,
2013-05-16 08:26:00,64.0,52.0,29.88,WSW,257,0.0,2.0,64,0.00,,,0.00,,2013-05-16 13:26:00,
2013-05-16 08:35:00,65.0,50.0,29.88,WSW,257,0.0,1.0,59,0.00,,,0.00,,2013-05-16 13:35:00,
2013-05-16 08:43:00,65.0,50.0,29.88,WSW,257,0.0,1.0,59,0.00,,,0.00,,2013-05-16 13:43:00,
2013-05-16 08:55:00,68.0,50.0,29.89,WSW,257,0.0,1.0,53,0.00,,,0.00,,2013-05-16 13:55:00,
2013-05-16 09:05:00,70.0,50.0,29.88,South,180,1.0,3.0,49,0.00,,,0.00,,2013-05-16 14:05:00,
2013-05-16 09:16:00,70.0,50.0,29.88,South,180,1.0,3.0,49,0.00,,,0.00,,2013-05-16 14:16:00,
2013-05-16 09:23:00,70.0,48.0,29.88,SSE,159,1.0,6.0,46,0.00,,,0.00,,2013-05-16 14:23:00,
2013-05-16 09:37:00,72.0,48.0,29.88,SE,135,4.0,8.0,42,0.00,,,0.00,,2013-05-16 14:37:00,
2013-05-16 09:47:00,72.0,48.0,29.88,SE,135,4.0,8.0,42,0.00,,,0.00,,2013-05-16 14:47:00,
2013-05-16 09:56:00,74.0,47.0,29.88,SSE,151,3.0,8.0,39,0.00,,,0.00,,2013-05-16 14:56:00,
2013-05-16 10:08:00,75.0,47.0,29.89,SE,135,3.0,10.0,37,0.00,,,0.00,,2013-05-16 15:08:00,
2013-05-16 10:17:00,75.0,47.0,29.89,SE,135,3.0,10.0,37,0.00,,,0.00,,2013-05-16 15:17:00,
2013-05-16 10:28:00,76.0,46.0,29.89,SE,137,3.0,8.0,35,0.00,,,0.00,,2013-05-16 15:28:00,
2013-05-16 10:40:00,77.0,47.0,29.88,SE,138,0.0,7.0,35,0.00,,,0.00,,2013-05-16 15:40:00,
2013-05-16 10:50:00,77.0,47.0,29.88,SE,138,0.0,7.0,35,0.00,,,0.00,,2013-05-16 15:50:00,
2013-05-16 11:00:00,77.0,46.0,29.88,ESE,121,3.0,8.0,34,0.00,,,0.00,,2013-05-16 16:00:00,
2013-05-16 11:09:00,77.0,46.0,29.88,SSE,148,1.0,9.0,34,0.00,,,0.00,,2013-05-16 16:09:00,
2013-05-16 11:19:00,77.0,46.0,29.88,SSE,148,1.0,9.0,34,0.00,,,0.00,,2013-05-16 16:19:00,
2013-05-16 11:30:00,78.0,47.0,29.88,ESE,119,3.0,7.0,34,0.00,,,0.00,,2013-05-16 16:30:00,
2013-05-16 11:40:00,78.0,-99.9,29.88,SE,142,4.0,9.0,30,0.00,,,0.00,,2013-05-16 16:40:00,
2013-05-16 11:50:00,78.0,44.0,29.88,SE,142,4.0,9.0,30,0.00,,,0.00,,2013-05-16 16:50:00,
2013-05-16 12:01:00,79.0,43.0,29.87,SE,126,4.0,7.0,28,0.00,,,0.00,,2013-05-16 17:01:00,
2013-05-16 12:10:00,79.0,45.0,29.86,SE,145,5.0,11.0,30,0.00,,,0.00,,2013-05-16 17:10:00,
2013-05-16 12:20:00,79.0,45.0,29.86,SE,145,5.0,11.0,30,0.00,,,0.00,,2013-05-16 17:20:00,
2013-05-16 12:30:00,79.0,42.0,29.86,SSE,148,1.0,9.0,27,0.00,,,0.00,,2013-05-16 17:30:00,
2013-05-16 12:40:00,80.0,44.0,29.86,ESE,119,2.0,7.0,28,0.00,,,0.00,,2013-05-16 17:40:00,
2013-05-16 12:50:00,80.0,-99.9,29.86,SE,130,4.0,12.0,27,0.00,,,0.00,,2013-05-16 17:50:00,
2013-05-16 13:00:00,-999.0,-99.9,29.86,SE,130,4.0,12.0,27,0.00,,,0.00,,2013-05-16 18:00:00,
2013-05-16 13:10:00,81.0,45.0,29.85,SE,132,2.0,8.0,28,0.00,,,0.00,,2013-05-16 18:10:00,
2013-05-16 13:20:00,81.0,45.0,29.85,SE,132,2.0,8.0,28,0.00,,,0.00,,2013-05-16 18:20:00,
2013-05-16 13:30:00,-999.0,-99.9,29.85,SE,140,2.0,9.0,27,0.00,,,0.00,,2013-05-16 18:30:00,
2013-05-16 13:40:00,-999.0,-99.9,29.84,SE,138,3.0,9.0,25,0.00,,,0.00,,2013-05-16 18:40:00,
2013-05-16 13:50:00,-999.0,-99.9,29.84,SE,138,3.0,9.0,25,0.00,,,0.00,,2013-05-16 18:50:00,
2013-05-16 14:00:00,-999.0,-99.9,29.84,SE,127,4.0,9.0,25,0.00,,,0.00,,2013-05-16 19:00:00,
2013-05-16 14:10:00,82.0,44.0,29.83,ESE,120,2.0,7.0,26,0.00,,,0.00,,2013-05-16 19:10:00,
2013-05-16 14:20:00,82.0,44.0,29.83,ESE,120,2.0,7.0,26,0.00,,,0.00,,2013-05-16 19:20:00,
2013-05-16 14:30:00,82.0,45.0,29.83,SE,129,2.0,8.0,27,0.00,,,0.00,,2013-05-16 19:30:00,
2013-05-16 14:40:00,82.0,-99.9,29.83,SE,133,4.0,8.0,27,0.00,,,0.00,,2013-05-16 19:40:00,
2013-05-16 14:50:00,-999.0,-99.9,29.83,SE,133,4.0,8.0,27,0.00,,,0.00,,2013-05-16 19:50:00,
2013-05-16 15:00:00,-999.0,-99.9,29.83,ESE,123,5.0,13.0,25,0.00,,,0.00,,2013-05-16 20:00:00,
2013-05-16 15:10:00,-999.0,-99.9,29.83,SSE,148,4.0,11.0,24,0.00,,,0.00,,2013-05-16 20:10:00,
2013-05-16 15:20:00,83.0,-99.9,29.83,SSE,148,4.0,11.0,24,0.00,,,0.00,,2013-05-16 20:20:00,
2013-05-16 15:30:00,83.0,-99.9,29.83,South,188,2.0,7.0,23,0.00,,,0.00,,2013-05-16 20:30:00,
2013-05-16 15:40:00,-999.0,-99.9,29.82,SSE,148,4.0,13.0,23,0.00,,,0.00,,2013-05-16 20:40:00,
2013-05-16 15:50:00,83.0,41.0,29.82,SSE,148,4.0,13.0,23,0.00,,,0.00,,2013-05-16 20:50:00,
2013-05-16 16:00:00,83.0,-99.9,29.82,ESE,115,3.0,6.0,21,0.00,,,0.00,,2013-05-16 21:00:00,
2013-05-16 16:10:00,84.0,-99.9,29.82,ESE,122,4.0,7.0,22,0.00,,,0.00,,2013-05-16 21:10:00,
2013-05-16 16:20:00,84.0,-99.9,29.82,ESE,122,4.0,7.0,22,0.00,,,0.00,,2013-05-16 21:20:00,
2013-05-16 16:29:00,85.0,42.0,29.81,ESE,117,1.0,4.0,22,0.00,,,0.00,,2013-05-16 21:29:00,
2013-05-16 16:38:00,85.0,43.0,29.81,WSW,252,2.0,7.0,23,0.00,,,0.00,,2013-05-16 21:38:00,
2013-05-16 16:50:00,85.0,-99.9,29.81,WSW,252,2.0,7.0,23,0.00,,,0.00,,2013-05-16 21:50:00,
2013-05-16 17:00:00,-999.0,-99.9,29.80,ESE,123,2.0,9.0,21,0.00,,,0.00,,2013-05-16 22:00:00,
2013-05-16 17:08:00,86.0,41.0,29.80,ESE,119,1.0,5.0,21,0.00,,,0.00,,2013-05-16 22:08:00,
2013-05-16 17:21:00,86.0,41.0,29.80,ESE,119,1.0,5.0,21,0.00,,,0.00,,2013-05-16 22:21:00,
2013-05-16 17:30:00,85.0,42.0,29.80,SE,137,3.0,9.0,22,0.00,,,0.00,,2013-05-16 22:30:00,
2013-05-16 17:40:00,85.0,42.0,29.80,East,101,1.0,5.0,22,0.00,,,0.00,,2013-05-16 22:40:00,
2013-05-16 17:50:00,85.0,42.0,29.80,East,101,1.0,5.0,22,0.00,,,0.00,,2013-05-16 22:50:00,
2013-05-16 18:01:00,85.0,43.0,29.80,SE,138,0.0,5.0,23,0.00,,,0.00,,2013-05-16 23:01:00,
2013-05-16 18:06:00,84.0,43.0,29.80,SSE,167,0.0,3.0,24,0.00,,,0.00,,2013-05-16 23:06:00,
2013-05-16 18:16:00,84.0,43.0,29.80,SSE,167,0.0,3.0,24,0.00,,,0.00,,2013-05-16 23:16:00,
2013-05-16 18:24:00,84.0,43.0,29.80,ESE,120,2.0,5.0,24,0.00,,,0.00,,2013-05-16 23:24:00,
2013-05-16 18:35:00,83.0,46.0,29.80,SE,129,1.0,7.0,27,0.00,,,0.00,,2013-05-16 23:35:00,
2013-05-16 18:45:00,83.0,46.0,29.80,SE,129,1.0,7.0,27,0.00,,,0.00,,2013-05-16 23:45:00,
2013-05-16 18:54:00,83.0,46.0,29.80,South,170,0.0,6.0,27,0.00,,,0.00,,2013-05-16 23:54:00,
2013-05-16 19:02:00,82.0,46.0,29.80,SSW,198,0.0,4.0,28,0.00,,,0.00,,2013-05-17 00:02:00,
2013-05-16 19:13:00,82.0,46.0,29.80,SSW,198,0.0,4.0,28,0.00,,,0.00,,2013-05-17 00:13:00,
2013-05-16 19:22:00,82.0,47.0,29.80,SSW,198,0.0,2.0,29,0.00,,,0.00,,2013-05-17 00:22:00,
2013-05-16 19:33:00,81.0,47.0,29.80,South,173,0.0,2.0,31,0.00,,,0.00,,2013-05-17 00:33:00,
2013-05-16 19:43:00,81.0,47.0,29.80,South,173,0.0,2.0,31,0.00,,,0.00,,2013-05-17 00:43:00,
2013-05-16 19:53:00,80.0,48.0,29.80,South,173,0.0,1.0,33,0.00,,,0.00,,2013-05-17 00:53:00,
2013-05-16 20:03:00,79.0,48.0,29.81,South,173,0.0,1.0,34,0.00,,,0.00,,2013-05-17 01:03:00,
2013-05-16 20:12:00,79.0,48.0,29.81,South,173,0.0,1.0,34,0.00,,,0.00,,2013-05-17 01:12:00,
2013-05-16 20:23:00,78.0,50.0,29.81,South,173,0.0,1.0,37,0.00,,,0.00,,2013-05-17 01:23:00,
2013-05-16 20:32:00,77.0,51.0,29.81,South,173,0.0,1.0,40,0.00,,,0.00,,2013-05-17 01:32:00,
2013-05-16 20:43:00,77.0,51.0,29.81,South,173,0.0,1.0,40,0.00,,,0.00,,2013-05-17 01:43:00,
2013-05-16 20:52:00,76.0,51.0,29.82,South,173,0.0,1.0,42,0.00,,,0.00,,2013-05-17 01:52:00,
2013-05-16 21:02:00,74.0,51.0,29.83,South,173,0.0,1.0,45,0.00,,,0.00,,2013-05-17 02:02:00,
2013-05-16 21:11:00,74.0,51.0,29.83,South,173,0.0,1.0,45,0.00,,,0.00,,2013-05-17 02:11:00,
2013-05-16 21:22:00,73.0,51.0,29.83,South,173,0.0,1.0,46,0.00,,,0.00,,2013-05-17 02:22:00,
2013-05-16 21:32:00,73.0,51.0,29.84,South,173,0.0,1.0,46,0.00,,,0.00,,2013-05-17 02:32:00,
2013-05-16 21:42:00,73.0,51.0,29.84,South,173,0.0,1.0,46,0.00,,,0.00,,2013-05-17 02:42:00,
2013-05-16 21:53:00,73.0,51.0,29.84,South,173,0.0,2.0,46,0.00,,,0.00,,2013-05-17 02:53:00,
2013-05-16 22:02:00,72.0,51.0,29.85,South,173,0.0,1.0,47,0.00,,,0.00,,2013-05-17 03:02:00,
2013-05-16 22:11:00,72.0,51.0,29.85,South,173,0.0,1.0,47,0.00,,,0.00,,2013-05-17 03:11:00,
2013-05-16 22:22:00,71.0,51.0,29.85,South,173,0.0,1.0,49,0.00,,,0.00,,2013-05-17 03:22:00,
2013-05-16 22:34:00,71.0,51.0,29.85,South,173,1.0,2.0,50,0.00,,,0.00,,2013-05-17 03:34:00,
2013-05-16 22:43:00,71.0,51.0,29.85,South,173,1.0,2.0,50,0.00,,,0.00,,2013-05-17 03:43:00,
2013-05-16 22:53:00,72.0,52.0,29.85,South,173,0.0,2.0,50,0.00,,,0.00,,2013-05-17 03:53:00,
2013-05-16 23:02:00,72.0,53.0,29.85,South,173,0.0,1.0,51,0.00,,,0.00,,2013-05-17 04:02:00,
2013-05-16 23:13:00,72.0,53.0,29.85,South,173,0.0,1.0,51,0.00,,,0.00,,2013-05-17 04:13:00,
2013-05-16 23:23:00,72.0,51.0,29.85,South,173,0.0,2.0,47,0.00,,,0.00,,2013-05-17 04:23:00,
2013-05-16 23:33:00,73.0,52.0,29.85,SE,133,1.0,7.0,47,0.00,,,0.00,,2013-05-17 04:33:00,
2013-05-16 23:43:00,73.0,52.0,29.85,SE,133,1.0,7.0,47,0.00,,,0.00,,2013-05-17 04:43:00,
2013-05-16 23:53:00,73.0,50.0,29.85,SE,128,4.0,14.0,44,0.00,,,0.00,,2013-05-17 04:53:00,